Ionia, MI

7:25 PM EDT on March 25, 2017 (GMT -0400)
Ionia

Weather History for KY70 - December, 2012

Change the Weather History Date:

Wednesday, December 12, 2012

  Actual Average (KGRR) Record (KGRR)
Temperature  
Mean Temperature 37 °F -  
Max Temperature 43 °F 36 °F 60 °F (1991)
Min Temperature 31 °F 23 °F -5 °F (1958)
Degree Days  
Heating Degree Days 28    
Moisture  
Dew Point 26 °F    
Average Humidity 70    
Maximum Humidity 83    
Minimum Humidity 43    
Precipitation  
Precipitation 0.00 in - - ()
Sea Level Pressure  
Sea Level Pressure 30.22 in    
Wind  
Wind Speed 13 mph (SSW)    
Max Wind Speed 18 mph    
Max Gust Speed 24 mph    
Visibility 10 miles    
Events Snow    
Averages and records for this station are not official NWS values.
T = Trace of Precipitation, MM = Missing Value Source: NWS Daily Summary

Daily Weather History Graph

Daily Weather History Graph

Search for Another Location

Airport or City:

Trip Planner

Search our weather history database for the weather conditions in past years. The results will help you decide how hot, cold, wet, or windy it might be!

Date:

Astronomy

Dec. 12, 2012 Rise Set
Actual Time 8:02 AM EST 5:05 PM EST
Civil Twilight 7:30 AM EST 5:38 PM EST
Nautical Twilight 6:54 AM EST 6:13 PM EST
Astronomical Twilight 6:20 AM EST 6:48 PM EST
Moon 7:05 AM EST (12/12) 4:42 PM EST (12/12)
Length of Visible Light 10h 07m
Length of Day
9h 03m
Waning Crescent, 1% of the Moon is Illuminated
Dec 12
Waning Crescent
Dec 13
New
Dec 20
First Quarter
Dec 28
Full
Jan 4
Last Quarter

Hourly Weather History & Observations

Time (EST) Temp. Windchill Dew Point Humidity Pressure Visibility Wind Dir Wind Speed Gust Speed Precip Events Conditions
12:14 AM 32.0 °F 21.2 °F 25.2 °F 76% 30.07 in 10.0 mi SW 16.1 mph - N/A   Overcast
12:34 AM 32.0 °F 21.6 °F 25.3 °F 76% 30.08 in 10.0 mi SW 15.0 mph - N/A   Overcast
12:54 AM 32.0 °F 22.5 °F 25.7 °F 78% 30.08 in 10.0 mi SW 12.7 mph - N/A   Overcast
1:14 AM 32.0 °F 22.1 °F 25.5 °F 77% 30.08 in 10.0 mi SW 13.8 mph 20.7 mph N/A   Overcast
1:34 AM 32.0 °F 22.1 °F 25.7 °F 78% 30.09 in 10.0 mi SW 13.8 mph 19.6 mph N/A   Overcast
1:54 AM 32.0 °F 22.5 °F 26.4 °F 80% 30.09 in 10.0 mi SW 12.7 mph - N/A   Overcast
2:14 AM 32.0 °F 20.8 °F 26.4 °F 80% 30.10 in 10.0 mi SW 17.3 mph 21.9 mph N/A   Overcast
2:34 AM 32.0 °F 21.6 °F 27.1 °F 82% 30.10 in 10.0 mi SW 15.0 mph 23.0 mph N/A Snow Light Snow
2:54 AM 32.2 °F 22.3 °F 27.3 °F 82% 30.11 in 10.0 mi SW 13.8 mph - N/A Snow Light Snow
3:14 AM 32.5 °F 21.9 °F 27.5 °F 82% 30.12 in 10.0 mi SW 16.1 mph 20.7 mph N/A Snow Light Snow
3:34 AM 32.5 °F 21.2 °F 28.0 °F 83% 30.12 in 7.0 mi SW 18.4 mph 24.2 mph N/A Snow Light Snow
3:54 AM 32.9 °F 22.8 °F 27.9 °F 82% 30.12 in 10.0 mi SW 15.0 mph 23.0 mph N/A   Overcast
4:14 AM 32.9 °F 23.2 °F 27.9 °F 82% 30.13 in 10.0 mi SW 13.8 mph - N/A   Overcast
4:34 AM 32.9 °F 24.1 °F 27.5 °F 81% 30.13 in 10.0 mi SW 11.5 mph - N/A   Overcast
4:54 AM 32.9 °F 23.2 °F 27.3 °F 80% 30.14 in 10.0 mi SW 13.8 mph - N/A   Overcast
5:14 AM 33.1 °F 24.4 °F 27.3 °F 79% 30.14 in 10.0 mi SW 11.5 mph 16.1 mph N/A   Overcast
5:34 AM 32.9 °F 23.7 °F 27.1 °F 79% 30.15 in 10.0 mi SW 12.7 mph 17.3 mph N/A   Overcast
5:54 AM 32.5 °F 24.2 °F 27.0 °F 80% 30.15 in 10.0 mi SW 10.4 mph - N/A   Overcast
6:14 AM 32.0 °F 24.8 °F 27.1 °F 82% 30.16 in 10.0 mi SSW 8.1 mph - N/A   Overcast
6:34 AM 32.0 °F 24.2 °F 27.0 °F 82% 30.17 in 10.0 mi SSW 9.2 mph - N/A   Overcast
6:54 AM 31.6 °F 23.7 °F 26.6 °F 82% 30.18 in 10.0 mi SSW 9.2 mph - N/A   Overcast
7:14 AM 31.6 °F 23.1 °F 26.6 °F 82% 30.19 in 10.0 mi SSW 10.4 mph - N/A   Overcast
7:34 AM 31.5 °F 22.3 °F 26.4 °F 82% 30.19 in 10.0 mi SSW 11.5 mph - N/A   Overcast
7:54 AM 31.5 °F 23.5 °F 26.6 °F 82% 30.20 in 10.0 mi SW 9.2 mph - N/A   Overcast
8:14 AM 31.6 °F 23.7 °F 26.6 °F 82% 30.21 in 7.0 mi SSW 9.2 mph - N/A   Overcast
8:34 AM 31.5 °F 22.3 °F 26.4 °F 82% 30.22 in 7.0 mi SSW 11.5 mph - N/A   Overcast
8:54 AM 31.6 °F 23.1 °F 26.2 °F 80% 30.23 in 5.0 mi SW 10.4 mph - N/A   Haze
9:14 AM 32.0 °F 23.6 °F 26.2 °F 79% 30.24 in 10.0 mi SW 10.4 mph - N/A   Overcast
9:34 AM 32.5 °F 24.8 °F 26.6 °F 79% 30.24 in 10.0 mi SW 9.2 mph - N/A   Overcast
9:54 AM 32.5 °F 24.2 °F 26.8 °F 79% 30.25 in 10.0 mi SSW 10.4 mph - N/A   Overcast
10:14 AM 33.3 °F 26.4 °F 27.3 °F 79% 30.26 in 10.0 mi SW 8.1 mph - N/A   Overcast
10:34 AM 34.9 °F 28.3 °F 28.2 °F 77% 30.27 in 7.0 mi SW 8.1 mph - N/A   Overcast
10:54 AM 36.5 °F 29.2 °F 28.2 °F 72% 30.27 in 10.0 mi SSW 10.4 mph - N/A   Mostly Cloudy
11:14 AM 37.0 °F 28.9 °F 28.4 °F 71% 30.28 in 10.0 mi SSW 12.7 mph - N/A   Scattered Clouds
11:34 AM 38.3 °F 30.5 °F 28.6 °F 68% 30.27 in 10.0 mi SSW 12.7 mph - N/A   Clear
11:54 AM 39.2 °F 32.0 °F 28.6 °F 66% 30.27 in 10.0 mi SW 11.5 mph - N/A   Clear
12:14 PM 39.7 °F 31.5 °F 27.9 °F 63% 30.27 in 10.0 mi SSW 15.0 mph - N/A   Clear
12:34 PM 41.5 °F 34.6 °F 27.0 °F 56% 30.27 in 10.0 mi SW 12.7 mph - N/A   Scattered Clouds
12:54 PM 41.4 °F 33.0 °F 25.0 °F 52% 30.27 in 10.0 mi SW 17.3 mph - N/A   Mostly Cloudy
1:14 PM 42.3 °F 34.4 °F 24.1 °F 49% 30.26 in 10.0 mi SW 16.1 mph 23.0 mph N/A   Scattered Clouds
1:34 PM 43.0 °F 36.8 °F 24.3 °F 48% 30.26 in 10.0 mi WSW 11.5 mph - N/A   Clear
1:54 PM 43.0 °F 35.1 °F 23.0 °F 45% 30.26 in 10.0 mi SW 17.3 mph - N/A   Clear
2:14 PM 43.3 °F 35.8 °F 23.0 °F 45% 30.26 in 10.0 mi SW 16.1 mph - N/A   Clear
2:34 PM 43.7 °F 36.9 °F 23.7 °F 45% 30.26 in 10.0 mi WSW 13.8 mph 23.0 mph N/A   Clear
2:54 PM 43.7 °F 36.6 °F 23.0 °F 44% 30.26 in 10.0 mi WSW 15.0 mph - N/A   Clear
3:14 PM 43.3 °F 36.5 °F 22.1 °F 43% 30.26 in 10.0 mi SW 13.8 mph - N/A   Clear
3:34 PM 43.2 °F 37.0 °F 22.5 °F 44% 30.26 in 10.0 mi WSW 11.5 mph - N/A   Clear
3:54 PM 43.0 °F 36.8 °F 22.5 °F 44% 30.26 in 10.0 mi SW 11.5 mph - N/A   Clear
4:14 PM 42.3 °F 37.3 °F 23.5 °F 48% 30.26 in 10.0 mi SW 8.1 mph - N/A   Clear
4:34 PM 41.4 °F 36.2 °F 23.4 °F 49% 30.27 in 10.0 mi SW 8.1 mph - N/A   Clear
4:54 PM 39.4 °F 34.5 °F 25.0 °F 56% 30.27 in 10.0 mi SSW 6.9 mph - N/A   Clear
5:14 PM 37.4 °F 32.8 °F 25.3 °F 62% 30.27 in 10.0 mi SSW 5.8 mph - N/A   Clear
5:34 PM 37.6 °F 32.3 °F 24.8 °F 60% 30.27 in 10.0 mi South 6.9 mph - N/A   Clear
5:54 PM 37.2 °F 31.2 °F 25.0 °F 61% 30.27 in 10.0 mi South 8.1 mph - N/A   Clear
6:14 PM 36.5 °F 31.0 °F 25.0 °F 63% 30.28 in 10.0 mi South 6.9 mph - N/A   Clear
6:34 PM 36.3 °F 30.1 °F 25.2 °F 64% 30.28 in 10.0 mi South 8.1 mph - N/A   Clear
6:54 PM 36.0 °F 29.0 °F 25.3 °F 65% 30.28 in 10.0 mi South 9.2 mph - N/A   Clear
7:14 PM 35.8 °F 29.4 °F 25.5 °F 66% 30.28 in 10.0 mi South 8.1 mph - N/A   Clear
7:34 PM 35.6 °F 28.6 °F 25.5 °F 67% 30.28 in 10.0 mi South 9.2 mph - N/A   Clear
7:54 PM 35.4 °F 27.8 °F 25.7 °F 68% 30.28 in 10.0 mi South 10.4 mph - N/A   Clear
8:14 PM 35.1 °F 27.4 °F 25.5 °F 68% 30.29 in 10.0 mi South 10.4 mph - N/A   Clear
8:34 PM 34.9 °F 26.2 °F 25.7 °F 69% 30.28 in 10.0 mi South 12.7 mph - N/A   Clear
8:54 PM 34.7 °F 25.9 °F 26.1 °F 71% 30.29 in 10.0 mi SSW 12.7 mph - N/A   Clear
9:14 PM 35.1 °F 26.4 °F 25.7 °F 69% 30.29 in 10.0 mi SSW 12.7 mph 19.6 mph N/A   Clear
9:34 PM 34.7 °F 26.4 °F 25.7 °F 70% 30.29 in 10.0 mi SSW 11.5 mph - N/A   Clear
9:54 PM 34.3 °F 25.9 °F 25.7 °F 71% 30.29 in 7.0 mi SSW 11.5 mph - N/A   Clear
10:14 PM 33.8 °F 25.8 °F 25.9 °F 73% 30.29 in 10.0 mi SSW 10.4 mph - N/A   Clear
10:34 PM 33.6 °F 26.2 °F 25.7 °F 73% 30.29 in 10.0 mi SSW 9.2 mph - N/A   Clear
10:54 PM 33.4 °F 26.6 °F 25.7 °F 73% 30.29 in 10.0 mi SSW 8.1 mph - N/A   Clear
11:14 PM 33.6 °F 25.6 °F 25.7 °F 73% 30.29 in 10.0 mi SSW 10.4 mph - N/A   Clear
11:34 PM 33.3 °F 25.7 °F 25.7 °F 74% 30.29 in 10.0 mi SSW 9.2 mph - N/A   Clear
11:54 PM 32.9 °F 25.3 °F 25.5 °F 74% 30.29 in 10.0 mi South 9.2 mph - N/A   Clear